Regional Weather Roundup
Issued by NWS Upton, NY

Current Version | Previous Version | Graphics & Text | Print | Product List | Glossary Off
Versions: 1 2 3 4 5 6 7 8 9 10 11 12 13 14 15 16 17 18 19 20 21 22 23 24 25 26 27 28 29 30 31 32 33 34 35 36 37 38 39 40 41 42 43 44 45 46 47 48 49 50

000
ASUS41 KOKX 300005
RWROKX

REGIONAL WEATHER ROUNDUP
NATIONAL WEATHER SERVICE NEW YORK NY
700 PM EST THU JAN 29 2015

NOTE: "FAIR" INDICATES FEW OR NO CLOUDS BELOW 12,000 FEET WITH NO
SIGNIFICANT WEATHER AND/OR OBSTRUCTIONS TO VISIBILITY.

NYZ071-072-176-178-NJZ106-104-300100-
NEW YORK CITY METRO AREA


CITY           SKY/WX    TMP DP  RH WIND       PRES   REMARKS
CENTRAL PARK   CLOUDY    34  24  67 MISG      30.12F
LAGUARDIA APRT CLOUDY    33  26  75 S8        30.11F WCI  26
KENNEDY INTL   CLOUDY    35  27  72 S12       30.12F WCI  27
NEWARK/LIBERTY CLOUDY    32  19  58 S7        30.11F WCI  26
BRNX BOT. GARD   N/A    N/A N/A N/A NE6       30.11F
TETERBORO      CLOUDY    33  23  66 S8        30.10F WCI  26
$$

NYZ177-179-078>081-300100-
LONG ISLAND NEW YORK

CITY           SKY/WX    TMP DP  RH WIND       PRES   REMARKS
FARMINGDALE    CLOUDY    30  22  72 CALM      30.12F
ISLIP          CLOUDY    33  25  72 SE7       30.11F WCI  27
SHIRLEY        CLOUDY    31  25  78 CALM      30.14F
WESTHAMPTON    CLOUDY    29  20  69 CALM      30.15F
MONTAUK POINT    N/A     34  26  72 VRB3      30.15F
$$

NYZ052-065-067-300100-
HUDSON VALLEY

CITY           SKY/WX    TMP DP  RH WIND       PRES   REMARKS
WHITE PLAINS   CLOUDY    28  21  75 SE7       30.09F WCI  21
NEWBURGH       CLOUDY    28  18  64 VRB6      30.08F WCI  22
MONTGOMERY     CLOUDY    29  15  56 S10       30.05F WCI  20
POUGHKEEPSIE   CLOUDY    32  12  43 SE9       30.08F WCI  24
ALBANY         CLOUDY    29   7  39 S13       30.03F WCI  19
$$

NJZ001-105-106-008-010-013-015-019>022-104-300100-
NEW JERSEY

CITY           SKY/WX    TMP DP  RH WIND       PRES   REMARKS
NEWARK/LIBERTY CLOUDY    32  19  58 S7        30.11F WCI  26
TETERBORO      CLOUDY    33  23  66 S8        30.10F WCI  26
CALDWELL       CLOUDY    31  17  56 VRB6      30.10F WCI  25
MORRISTOWN     CLOUDY    30  21  69 S3        30.10F
SOMERVILLE     CLOUDY    31  18  58 SE3       30.07F
SUSSEX         CLOUDY    28  12  51 S3        30.05F
ANDOVER          N/A     27  12  53 VRB3      30.05F
TRENTON        CLOUDY    32  17  54 S8        30.09F WCI  25
MILLVILLE      CLOUDY    34  20  56 S5        30.10F WCI  30
ATLANTIC CITY  CLOUDY    34  25  69 S8        30.11F WCI  27
WRIGHTSTOWN    CLOUDY    31  22  69 S6        30.08F WCI  25
TOMS RIVER     CLOUDY    30  25  80 S6        30.10F WCI  24
BELMAR         CLOUDY    32  19  59 SW5       30.10F WCI  27
$$

PAZ047>061-062-071-300100-
EASTERN PENNSYLVANIA

CITY           SKY/WX    TMP DP  RH WIND       PRES   REMARKS
PHILADELPHIA   CLOUDY    34  18  52 S8        30.11S WCI  27
ALLENTOWN      CLOUDY    31  11  43 S5        30.07R WCI  26
SCRANTON       LGT SNOW  25  17  72 SW9       29.98R VSB 3/4 WCI  15
$$

CTZ002-004>006-009-010-012-RIZ004-006-007-MAZ004-011-015-300100-
SOUTHERN NEW ENGLAND
 IN CT

CITY           SKY/WX    TMP DP  RH WIND       PRES   REMARKS
BRADLEY INTL   CLOUDY    30  15  53 S8        30.11S WCI  22
HARTFORD       CLOUDY    29  18  63 S7        30.13F WCI  22
DANBURY        CLOUDY    28  14  55 SE5       30.10F WCI  23
WTRBRY/OXFORD  CLOUDY    27  12  54 S9        30.09F WCI  17
BRIDGEPORT     CLOUDY    31  23  72 SE5       30.13F WCI  26
MERIDEN        CLOUDY    29  20  69 CALM      30.13F
NEW HAVEN      CLOUDY    32  24  72 S7        30.14F WCI  26
CHESTER        FAIR      30  25  80 CALM      30.12F
GROTON         CLOUDY    31  26  82 SE9       30.15F WCI  23
WILLIMANTIC    CLOUDY    29  20  69 S5        30.15S WCI  24

 IN RI

CITY           SKY/WX    TMP DP  RH WIND       PRES   REMARKS
PROVIDENCE     CLOUDY    27  16  63 SW5       30.16F WCI  22
BLOCK ISLAND   MOCLDY    32  21  64 S6        30.14F WCI  26
WESTERLY       CLOUDY    31  24  75 S5        30.16F WCI  26

 IN MA

CITY           SKY/WX    TMP DP  RH WIND       PRES   REMARKS
BOSTON         MOCLDY    29  22  75 S9        30.16F WCI  20
WORCESTER      CLOUDY    26  13  57 S8        30.08F WCI  18
WESTFIELD      CLOUDY    29   6  38 SE5       30.11S WCI  24
PROVINCETOWN   CLEAR     21  16  79 CALM      30.17S
NANTUCKET      CLEAR     26  23  88 NW3       30.17S
$$

ANZ330-335-338-340-345-350-353-355-300100-
COASTAL MARINE OBSERVATIONS


STATION/POSITION TIME  SKY/WX   TEMP    WIND        PRES    VSBY  WAVE
                                AIR SEA DIR/SP/G                  HT/PER
                 (UTC)          (F)     (DEG/KT/KT) (MB)    (MI)  (FT/S)
NY HARB ENTRANCE 0000            37 39  190/ 14/ 17 1019.4          2/10
4S FIRE IS       0000               37                N/A           2/10
20S FIRE ISLAND  2300               42              1020.8          2/10
23SW MTP         0000                                 N/A           2/10
HUDSON CANYON    NOT AVBL
EXECUTION ROCKS  0000            31 33  110/  6/  8   N/A
WESTERN LI SOUND 0000            31     140/  4/  6   N/A           0
CENTRAL LI SOUND 2300            32 35  140/  6/  8   N/A           1
EASTERN LI SOUND NOT AVBL
ROBBINS REEF     2300            33     180/ 10/ 13 1018.7
$$


>>>>>>>>>>>>>>>>>>>>>>>>>>>> KEY <<<<<<<<<<<<<<<<<<<<<<<<<<<
>                                                          <
>     SKY/WX - SKY CONDITION/PRESENT WEATHER               <
>     TMP    - TEMPERATURE IN FAHRENHEIT                   <
>     DP     - DEWPOINT IN FAHRENHEIT                      <
>     RH     - RELATIVE HUMIDITY IN PERCENT                <
>     WIND   - DIRECTION AND SPEED IN MPH                  <
>     PRES   - MEAN SEA LEVEL PRESSURE IN INCHES OF HG     <
>     WCI    - WIND CHILL INDEX                            <
>     VSB    - VISIBILITY IN MILES                         <
>     HX     - HEAT INDEX                                  <
>     TC     - TEMPERATURE IN CELSIUS                      <
>     VRB    - VARIABLE WIND DIRECTION                     <
>                                                          <
>>>>>>>>>>>>>>>>>>>>>>>>>>>> KEY <<<<<<<<<<<<<<<<<<<<<<<<<<<




USA.gov is the U.S. government's official web portal to all federal, state and local government web resources and services.